Regional Weather Roundup
Issued by NWS Kansas City/Pleasant Hill, MO

Home | Current Version | Previous Version | Graphics & Text | Print | Product List | Glossary Off
Versions: 1 2 3 4 5 6 7 8 9 10 11 12 13 14 15 16 17 18 19 20 21 22 23 24 25 26 27 28 29 30 31 32 33 34 35 36 37 38 39 40 41 42 43 44 45 46 47 48 49 50

601
ASUS43 KEAX 080910
RWREAX

WEATHER ROUNDUP FOR EASTERN KANSAS AND NORTHWEST MISSOURI
NATIONAL WEATHER SERVICE KANSAS CITY/PLEASANT HILL MO
300 AM CST MON FEB 08 2016

KSZ040-057-103>105-MOZ028-029-037-043-081000-
...KANSAS CITY METROPOLITAN AREA...

CITY           SKY/WX    TMP DP  RH WIND       PRES   REMARKS
K.C. INTL      FLURRIES  33  23  66 NW25G32   29.99S WCI  20
K.C. DOWNTOWN  CLOUDY    36  22  56 NW15G29   30.00R WCI  27
LEES SUMMIT    CLOUDY    34  21  59 NW24G31   29.98S WCI  21
OLATHE - IXD   CLOUDY    35  22  58 NW21G28   30.01S WCI  24
OLATHE - OJC   CLOUDY    35  20  54 NW13      29.99F WCI  26
LAWRENCE       CLOUDY    35  19  52 NW25G45   30.03S WCI  23

$$

MOZ001>008-011>017-020>025-030>033-038>040-044>046-053-054-081000-
...NORTHERN AND CENTRAL MISSOURI...

CITY           SKY/WX    TMP DP  RH WIND       PRES   REMARKS
ST. JOSEPH     CLOUDY    33  21  61 N24G31    29.99F WCI  20
MOSBY          PTSUNNY   34  21  60 NW21G37   29.98R WCI  22
WARRENSBURG    MOCLDY    32  23  69 NW20G39   29.97R WCI  20
WHITEMAN AFB   CLOUDY    34  21  57 NW24G40   29.92S WCI  22
CLINTON          N/A     37  21  52 NW30G38   29.99R WCI  25
SEDALIA        LGT SNOW  34  28  79 NW14      29.93S WCI  25
WARSAW         NOT AVBL
CHILLICOTHE      N/A     31  20  63 NW17G29   29.94R WCI  19
KIRKSVILLE     FLURRIES  28  18  66 NW20G29   29.84R WCI  15

$$

MOZ041-047>049-056>058-063>065-088>090-097-081000-
...EASTERN AND SOUTHERN MISSOURI...

CITY           SKY/WX    TMP DP  RH WIND       PRES   REMARKS
ST. LOUIS INTL CLOUDY    39  28  64 W18G24    29.80F WCI  30
SPIRIT OF STL  CLOUDY    38  28  67 W13G21    29.81F WCI  30
COLUMBIA       CLOUDY    34  26  72 NW15G24   29.86F WCI  24
JEFFERSON CITY CLOUDY    36  24  62 W22G28    29.89F WCI  25
ROLLA          CLOUDY    33  26  75 W13       29.85F WCI  24
OSAGE BEACH    CLOUDY    37  21  52 W13G18    29.91F WCI  29
SPRINGFIELD    CLOUDY    38  20  48 W18G28    29.95F WCI  28
BRANSON        PTCLDY    37  19  48 W12G22    29.97F WCI  30
JOPLIN         CLEAR     36  21  54 W17G26    30.05F WCI  26
WEST PLAINS    CLOUDY    38  20  48 NW17G29   29.91F WCI  28

$$

IAZ060-094-KSZ022-034>040-054-083-096-NEZ052-066-093-081000-
...KANSAS...SOUTHEAST NEBRASKA AND IOWA...

CITY           SKY/WX    TMP DP  RH WIND       PRES   REMARKS
TOPEKA         CLOUDY    37  16  42 NW25G37   30.06S WCI  25
MANHATTAN      CLEAR     33  18  53 W9G16     30.12F WCI  25
EMPORIA        CLEAR     34  16  47 NW15G28   30.10S WCI  24
CHANUTE        CLEAR     36  18  48 NW18      30.09S WCI  26
WICHITA        PTCLDY    37  17  44 NW22G31   30.20S WCI  26
OMAHA          CLOUDY    30  21  69 NW26G33   29.98R WCI  16
LINCOLN        CLOUDY    34  20  56 NW17      30.04S WCI  23
FALLS CITY     MOCLDY    34  21  59 NW22G36   30.00F WCI  22
LAMONI         CLOUDY    25  16  68 NW26G36   29.89S WCI   9
DES MOINES     FLURRIES  23  13  65 NW22G39   29.87S WCI   8

$$





USA.gov is the U.S. government's official web portal to all federal, state and local government web resources and services.